RYR82AX LFTW-EBCI

Flight info

Callsign RYR82AX
Flight time 1h 15m
Altitude 34000
Route MTL DCT ETREK DCT MADOT DCT MOPEM DCT CACHI DCT AVLON DCT OKRIX DCT BRY DCT CLM DCT KOPOR DCT SOMIL DCT BELDI DCT VEKIN Z173 ARVOL
Aircraft B738/M-SDE2E3FGHIRWXY/LB1

Departure

Time 2026-04-26 14:50
Airport Nîmes-Arles-Camargue Airport (LFTW)

Arrival

Time 2026-04-26 16:06
Airport Brussels South Charleroi Airport (EBCI)
Time Latitude Longitude Altitude Speed Heading
2026-04-26 14:27 43.76268 4.42060 311 ft 0 kts 132°
2026-04-26 14:45 43.76267 4.42060 311 ft 0 kts 147°
2026-04-26 14:45 43.76264 4.42059 311 ft 1 kts 182°
2026-04-26 14:45 43.76254 4.42022 311 ft 6 kts 284°
2026-04-26 14:45 43.76304 4.41995 311 ft 11 kts 354°
2026-04-26 14:46 43.76381 4.41953 311 ft 14 kts 291°
2026-04-26 14:46 43.76384 4.41811 312 ft 16 kts 268°
2026-04-26 14:46 43.76377 4.41664 311 ft 15 kts 254°
2026-04-26 14:46 43.76282 4.41596 311 ft 20 kts 176°
2026-04-26 14:47 43.76128 4.41608 311 ft 23 kts 177°
2026-04-26 14:47 43.75944 4.41621 310 ft 30 kts 176°
2026-04-26 14:47 43.75723 4.41637 311 ft 32 kts 176°
2026-04-26 14:47 43.75508 4.41653 313 ft 30 kts 177°
2026-04-26 14:48 43.75309 4.41668 314 ft 28 kts 177°
2026-04-26 14:48 43.75121 4.41681 312 ft 26 kts 177°
2026-04-26 14:48 43.74945 4.41694 312 ft 25 kts 177°
2026-04-26 14:48 43.74788 4.41713 308 ft 18 kts 163°
2026-04-26 14:49 43.74700 4.41768 310 ft 12 kts 163°
2026-04-26 14:49 43.74661 4.41724 309 ft 8 kts 298°
2026-04-26 14:49 43.74721 4.41711 309 ft 13 kts 357°
2026-04-26 14:49 43.75032 4.41688 312 ft 83 kts 357°
2026-04-26 14:50 43.75861 4.41628 310 ft 153 kts 357°
2026-04-26 14:50 43.77086 4.41534 566 ft 188 kts 356°
2026-04-26 14:50 43.78372 4.41427 1538 ft 182 kts 356°
2026-04-26 14:50 43.79636 4.41290 2448 ft 186 kts 356°
2026-04-26 14:51 43.80996 4.41137 2962 ft 205 kts 355°
2026-04-26 14:51 43.82428 4.40964 3481 ft 214 kts 355°
2026-04-26 14:51 43.83924 4.40778 4103 ft 220 kts 354°
2026-04-26 14:51 43.85484 4.40603 4702 ft 230 kts
2026-04-26 14:52 43.87051 4.41123 5453 ft 233 kts 21°
2026-04-26 14:52 43.88530 4.41981 6404 ft 230 kts 21°
2026-04-26 14:52 43.90016 4.42828 7135 ft 233 kts 20°
2026-04-26 14:52 43.91531 4.43671 7890 ft 235 kts 20°
2026-04-26 14:53 43.93063 4.44518 8626 ft 239 kts 20°
2026-04-26 14:53 43.94629 4.45393 9277 ft 246 kts 21°
2026-04-26 14:53 43.96215 4.46269 10083 ft 246 kts 21°
2026-04-26 14:53 43.97823 4.47134 10731 ft 250 kts 20°
2026-04-26 14:54 43.99459 4.48007 11416 ft 252 kts 21°
2026-04-26 14:54 44.01105 4.48889 12089 ft 255 kts 21°
2026-04-26 14:54 44.02767 4.49783 12757 ft 258 kts 21°
2026-04-26 14:54 44.04436 4.50681 13423 ft 261 kts 20°
2026-04-26 14:55 44.06143 4.51600 14036 ft 267 kts 21°
2026-04-26 14:55 44.07946 4.52561 14255 ft 288 kts 20°
2026-04-26 14:55 44.09886 4.53591 14434 ft 310 kts 20°
2026-04-26 14:55 44.11979 4.54700 14596 ft 332 kts 20°
2026-04-26 14:56 44.14211 4.55884 14746 ft 353 kts 20°
2026-04-26 14:56 44.16568 4.57136 14897 ft 373 kts 20°
2026-04-26 14:56 44.19057 4.58460 15044 ft 391 kts 20°
2026-04-26 14:56 44.21643 4.59837 15408 ft 401 kts 20°
2026-04-26 14:57 44.24258 4.61232 15988 ft 404 kts 20°
2026-04-26 14:57 44.26892 4.62639 16632 ft 406 kts 20°
2026-04-26 14:57 44.29508 4.64036 17222 ft 409 kts 20°
2026-04-26 14:57 44.32178 4.65465 17784 ft 413 kts 20°
2026-04-26 14:58 44.34870 4.66906 18351 ft 416 kts 20°
2026-04-26 14:58 44.37587 4.68362 18845 ft 419 kts 20°
2026-04-26 14:58 44.40321 4.69828 19353 ft 421 kts 20°
2026-04-26 14:58 44.43070 4.71305 19857 ft 424 kts 20°
2026-04-26 14:59 44.45839 4.72794 20340 ft 427 kts 20°
2026-04-26 14:59 44.48623 4.74291 20815 ft 430 kts 20°
2026-04-26 14:59 44.51391 4.75782 21276 ft 433 kts 20°
2026-04-26 14:59 44.52341 4.76294 21437 ft 434 kts 20°
2026-04-26 15:00 44.57225 4.77716 22129 ft 437 kts 356°
2026-04-26 15:00 44.60250 4.77154 22643 ft 437 kts 350°
2026-04-26 15:00 44.63273 4.76443 23087 ft 440 kts 350°
2026-04-26 15:00 44.66301 4.75714 23488 ft 443 kts 350°
2026-04-26 15:01 44.69351 4.74991 23861 ft 446 kts 350°
2026-04-26 15:01 44.72417 4.74281 24218 ft 448 kts 350°
2026-04-26 15:01 44.75464 4.73590 24573 ft 450 kts 350°
2026-04-26 15:01 44.78602 4.72887 24926 ft 452 kts 350°
2026-04-26 15:02 44.81673 4.72204 25273 ft 453 kts 350°
2026-04-26 15:02 44.84788 4.71513 25614 ft 455 kts 350°
2026-04-26 15:02 44.87921 4.70817 25934 ft 456 kts 351°
2026-04-26 15:02 44.91069 4.70117 26280 ft 458 kts 351°
2026-04-26 15:03 44.94223 4.69413 26602 ft 460 kts 351°
2026-04-26 15:03 44.97392 4.68705 26903 ft 461 kts 351°
2026-04-26 15:03 45.00563 4.67996 27236 ft 463 kts 351°
2026-04-26 15:03 45.03750 4.67282 27567 ft 463 kts 351°
2026-04-26 15:04 45.05868 4.66807 27811 ft 463 kts 351°
2026-04-26 15:04 45.09049 4.66094 28265 ft 461 kts 351°
2026-04-26 15:04 45.12216 4.65382 28771 ft 458 kts 351°
2026-04-26 15:04 45.16367 4.64449 29438 ft 455 kts 351°
2026-04-26 15:05 45.18487 4.63972 29719 ft 454 kts 351°
2026-04-26 15:05 45.20555 4.63504 29977 ft 454 kts 351°
2026-04-26 15:05 45.24685 4.62561 30484 ft 452 kts 351°
2026-04-26 15:05 45.27786 4.61850 30822 ft 451 kts 351°
2026-04-26 15:06 45.30890 4.61137 31156 ft 451 kts 351°
2026-04-26 15:06 45.33992 4.60423 31512 ft 449 kts 351°
2026-04-26 15:06 45.37075 4.59714 31871 ft 448 kts 351°
2026-04-26 15:06 45.40145 4.59008 32199 ft 447 kts 351°
2026-04-26 15:07 45.46280 4.57594 32859 ft 446 kts 351°
2026-04-26 15:07 45.49333 4.56889 33204 ft 444 kts 351°
2026-04-26 15:07 45.52351 4.56192 33545 ft 443 kts 351°
2026-04-26 15:08 45.55392 4.55489 33879 ft 442 kts 351°
2026-04-26 15:08 45.58428 4.54786 34174 ft 441 kts 351°
2026-04-26 15:08 45.64531 4.53370 34158 ft 445 kts 351°
2026-04-26 15:09 45.70616 4.51956 34153 ft 439 kts 351°
2026-04-26 15:09 45.76585 4.50566 34151 ft 436 kts 351°
2026-04-26 15:10 45.81594 4.49401 34153 ft 434 kts 351°
2026-04-26 15:10 45.88521 4.47786 34162 ft 433 kts 351°
2026-04-26 15:11 45.94462 4.46396 34161 ft 432 kts 351°
2026-04-26 15:11 46.00399 4.45005 34160 ft 432 kts 351°
2026-04-26 15:12 46.06336 4.43610 34156 ft 432 kts 351°
2026-04-26 15:12 46.12261 4.42215 34158 ft 431 kts 351°
2026-04-26 15:13 46.18188 4.40817 34159 ft 431 kts 351°
2026-04-26 15:13 46.24116 4.39415 34155 ft 431 kts 351°
2026-04-26 15:14 46.30031 4.37929 34154 ft 431 kts 348°
2026-04-26 15:14 46.35830 4.35943 34161 ft 431 kts 346°
2026-04-26 15:15 46.41677 4.33813 34155 ft 430 kts 346°
2026-04-26 15:15 46.47453 4.31744 34157 ft 429 kts 346°
2026-04-26 15:16 46.53247 4.29698 34158 ft 428 kts 346°
2026-04-26 15:16 46.59044 4.27658 34160 ft 428 kts 346°
2026-04-26 15:17 46.63852 4.25962 34155 ft 427 kts 346°
2026-04-26 15:17 46.70605 4.23574 34158 ft 426 kts 346°
2026-04-26 15:18 46.76341 4.21541 34162 ft 426 kts 346°
2026-04-26 15:18 46.82098 4.19495 34164 ft 426 kts 346°
2026-04-26 15:19 46.87861 4.17442 34162 ft 425 kts 346°
2026-04-26 15:19 46.93609 4.15391 34165 ft 425 kts 346°
2026-04-26 15:20 46.99327 4.13345 34165 ft 425 kts 346°
2026-04-26 15:20 47.05073 4.11286 34172 ft 425 kts 346°
2026-04-26 15:21 47.10656 4.08482 34178 ft 424 kts 338°
2026-04-26 15:21 47.16129 4.05180 34177 ft 425 kts 338°
2026-04-26 15:22 47.21570 4.01907 34173 ft 425 kts 338°
2026-04-26 15:22 47.27052 3.98637 34177 ft 425 kts 338°
2026-04-26 15:23 47.32537 3.95368 34175 ft 425 kts 338°
2026-04-26 15:23 47.38018 3.92095 34184 ft 425 kts 338°
2026-04-26 15:24 47.43510 3.88807 34176 ft 425 kts 337°
2026-04-26 15:24 47.48995 3.85516 34183 ft 425 kts 337°
2026-04-26 15:25 47.53542 3.82782 34180 ft 425 kts 337°
2026-04-26 15:25 47.59949 3.78932 34188 ft 425 kts 337°
2026-04-26 15:26 47.65428 3.75648 34184 ft 424 kts 337°
2026-04-26 15:26 47.70873 3.72376 34184 ft 424 kts 337°
2026-04-26 15:27 47.76336 3.69083 34193 ft 424 kts 337°
2026-04-26 15:27 47.81815 3.65773 34192 ft 424 kts 337°
2026-04-26 15:28 47.87281 3.62463 34196 ft 424 kts 337°
2026-04-26 15:28 47.92751 3.59143 34196 ft 424 kts 336°
2026-04-26 15:29 47.98183 3.55836 34197 ft 424 kts 336°
2026-04-26 15:30 48.09107 3.49115 34199 ft 424 kts 336°
2026-04-26 15:30 48.14563 3.45745 34199 ft 424 kts 336°
2026-04-26 15:31 48.22731 3.40688 34198 ft 425 kts 336°
2026-04-26 15:32 48.30039 3.36149 34205 ft 425 kts 336°
2026-04-26 15:32 48.36383 3.32197 34205 ft 425 kts 336°
2026-04-26 15:33 48.41849 3.28781 34204 ft 425 kts 335°
2026-04-26 15:33 48.47294 3.25321 34205 ft 424 kts 335°
2026-04-26 15:34 48.52724 3.21847 34209 ft 424 kts 335°
2026-04-26 15:34 48.58164 3.18364 34209 ft 424 kts 335°
2026-04-26 15:35 48.63561 3.14903 34217 ft 424 kts 335°
2026-04-26 15:35 48.68990 3.11415 34216 ft 424 kts 335°
2026-04-26 15:36 48.74424 3.07914 34217 ft 424 kts 335°
2026-04-26 15:36 48.79855 3.04407 34226 ft 424 kts 335°
2026-04-26 15:37 48.85252 3.00812 34215 ft 423 kts 330°
2026-04-26 15:37 48.90185 2.96536 34218 ft 423 kts 328°
2026-04-26 15:38 48.94515 2.92690 34223 ft 423 kts 328°
2026-04-26 15:38 48.99574 2.88213 34220 ft 424 kts 328°
2026-04-26 15:39 49.04680 2.83712 34221 ft 424 kts 328°
2026-04-26 15:39 49.08962 2.79936 34214 ft 425 kts 328°
2026-04-26 15:40 49.14919 2.74673 34222 ft 426 kts 328°
2026-04-26 15:40 49.20047 2.70129 34219 ft 426 kts 327°
2026-04-26 15:41 49.25187 2.65563 34222 ft 427 kts 327°
2026-04-26 15:41 49.30303 2.61008 34231 ft 428 kts 327°
2026-04-26 15:42 49.35455 2.56408 34231 ft 428 kts 327°
2026-04-26 15:42 49.40607 2.51798 34239 ft 429 kts 327°
2026-04-26 15:43 49.45761 2.47174 34236 ft 429 kts 327°
2026-04-26 15:44 49.53752 2.40890 34239 ft 434 kts 340°
2026-04-26 15:44 49.59581 2.38333 33451 ft 441 kts 341°
2026-04-26 15:44 49.62526 2.37054 32770 ft 439 kts 341°
2026-04-26 15:45 49.68396 2.34421 31325 ft 440 kts 340°
2026-04-26 15:45 49.71345 2.33094 30559 ft 442 kts 343°
2026-04-26 15:46 49.77531 2.33524 28892 ft 459 kts 17°
2026-04-26 15:46 49.80403 2.35622 28204 ft 460 kts 31°
2026-04-26 15:46 49.82847 2.38891 27445 ft 465 kts 41°
2026-04-26 15:46 49.83623 2.40072 27222 ft 464 kts 42°
2026-04-26 15:47 49.87385 2.45926 26199 ft 458 kts 43°
2026-04-26 15:47 49.91870 2.52788 25007 ft 452 kts 42°
2026-04-26 15:47 49.94123 2.56181 24417 ft 449 kts 42°
2026-04-26 15:48 49.96365 2.59557 23843 ft 446 kts 42°
2026-04-26 15:48 49.98567 2.62897 23306 ft 440 kts 43°
2026-04-26 15:48 50.00742 2.66214 22730 ft 436 kts 43°
2026-04-26 15:48 50.02901 2.69516 22113 ft 433 kts 43°
2026-04-26 15:49 50.05035 2.72782 21521 ft 429 kts 43°
2026-04-26 15:49 50.07154 2.76029 20940 ft 426 kts 43°
2026-04-26 15:49 50.08553 2.78176 20558 ft 424 kts 43°
2026-04-26 15:49 50.11349 2.82468 19800 ft 420 kts 43°
2026-04-26 15:50 50.12725 2.84582 19421 ft 419 kts 43°
2026-04-26 15:50 50.14797 2.87769 18848 ft 416 kts 43°
2026-04-26 15:50 50.16854 2.90937 18221 ft 415 kts 43°
2026-04-26 15:50 50.18899 2.94091 17601 ft 412 kts 43°
2026-04-26 15:51 50.20927 2.97222 17011 ft 409 kts 43°
2026-04-26 15:51 50.22943 3.00340 16437 ft 406 kts 43°
2026-04-26 15:51 50.24939 3.03432 15871 ft 403 kts 43°
2026-04-26 15:51 50.26927 3.06512 15311 ft 400 kts 43°
2026-04-26 15:52 50.28892 3.09561 14761 ft 397 kts 43°
2026-04-26 15:52 50.30848 3.12600 14212 ft 395 kts 44°
2026-04-26 15:52 50.32789 3.15620 13619 ft 392 kts 44°
2026-04-26 15:52 50.34066 3.17610 13220 ft 391 kts 44°
2026-04-26 15:53 50.36608 3.21572 12463 ft 387 kts 44°
2026-04-26 15:53 50.38512 3.24544 11908 ft 384 kts 44°
2026-04-26 15:53 50.40402 3.27500 11363 ft 382 kts 44°
2026-04-26 15:53 50.42249 3.30382 11257 ft 367 kts 44°
2026-04-26 15:54 50.44032 3.33157 11085 ft 355 kts 44°
2026-04-26 15:54 50.45760 3.35851 10960 ft 344 kts 44°
2026-04-26 15:54 50.47435 3.38469 10808 ft 335 kts 44°
2026-04-26 15:54 50.49057 3.41006 10677 ft 325 kts 44°
2026-04-26 15:55 50.50642 3.43488 10547 ft 317 kts 44°
2026-04-26 15:55 50.52182 3.45903 10408 ft 308 kts 44°
2026-04-26 15:55 50.53436 3.48559 10266 ft 301 kts 66°
2026-04-26 15:55 50.53862 3.51692 10273 ft 289 kts 89°
2026-04-26 15:56 50.53564 3.54830 9818 ft 294 kts 108°
2026-04-26 15:56 50.52917 3.57844 9472 ft 295 kts 109°
2026-04-26 15:56 50.52242 3.60905 9161 ft 295 kts 109°
2026-04-26 15:56 50.51571 3.63959 8843 ft 295 kts 109°
2026-04-26 15:57 50.50908 3.66990 8541 ft 291 kts 109°
2026-04-26 15:57 50.50258 3.69974 8262 ft 285 kts 109°
2026-04-26 15:57 50.49624 3.72889 7963 ft 280 kts 109°
2026-04-26 15:57 50.49210 3.74794 7774 ft 276 kts 109°
2026-04-26 15:58 50.48395 3.78553 7420 ft 268 kts 109°
2026-04-26 15:58 50.47798 3.81301 7154 ft 264 kts 109°
2026-04-26 15:58 50.47212 3.84000 6884 ft 259 kts 109°
2026-04-26 15:58 50.46633 3.86660 6630 ft 254 kts 108°
2026-04-26 15:59 50.46065 3.89270 6360 ft 252 kts 108°
2026-04-26 15:59 50.45501 3.91866 6103 ft 251 kts 108°
2026-04-26 15:59 50.44934 3.94463 5843 ft 251 kts 108°
2026-04-26 15:59 50.44376 3.97017 5589 ft 251 kts 108°
2026-04-26 16:00 50.43811 3.99602 5330 ft 250 kts 108°
2026-04-26 16:00 50.43246 4.02190 4953 ft 254 kts 108°
2026-04-26 16:00 50.42669 4.04824 4708 ft 255 kts 108°
2026-04-26 16:00 50.42096 4.07435 4528 ft 251 kts 108°
2026-04-26 16:01 50.41536 4.09991 4427 ft 245 kts 108°
2026-04-26 16:01 50.40985 4.12500 4316 ft 240 kts 108°
2026-04-26 16:01 50.40440 4.14967 4180 ft 238 kts 108°
2026-04-26 16:01 50.39894 4.17435 3923 ft 240 kts 108°
2026-04-26 16:02 50.39368 4.19858 3679 ft 235 kts 103°
2026-04-26 16:02 50.39347 4.22345 3418 ft 226 kts 74°
2026-04-26 16:02 50.39893 4.24582 3204 ft 216 kts 62°
2026-04-26 16:02 50.40341 4.25991 3016 ft 211 kts 62°
2026-04-26 16:03 50.41163 4.28668 2759 ft 199 kts 63°
2026-04-26 16:03 50.41730 4.30604 2491 ft 191 kts 64°
2026-04-26 16:03 50.42263 4.32440 2248 ft 179 kts 64°
2026-04-26 16:03 50.42749 4.34126 2044 ft 162 kts 63°
2026-04-26 16:04 50.43193 4.35662 1814 ft 146 kts 63°
2026-04-26 16:04 50.43611 4.37100 1641 ft 145 kts 64°
2026-04-26 16:04 50.44034 4.38562 1450 ft 150 kts 63°
2026-04-26 16:04 50.44469 4.40057 1236 ft 153 kts 64°
2026-04-26 16:05 50.44902 4.41549 1028 ft 148 kts 64°
2026-04-26 16:05 50.45326 4.43010 795 ft 149 kts 64°
2026-04-26 16:05 50.45756 4.44495 630 ft 146 kts 64°
2026-04-26 16:05 50.46131 4.45786 615 ft 111 kts 66°
2026-04-26 16:06 50.46391 4.46679 620 ft 69 kts 65°
2026-04-26 16:06 50.46531 4.47162 619 ft 35 kts 65°
2026-04-26 16:06 50.46607 4.47422 622 ft 17 kts 63°
2026-04-26 16:06 50.46698 4.47427 615 ft 15 kts 335°
2026-04-26 16:07 50.46788 4.47362 625 ft 14 kts 335°
2026-04-26 16:07 50.46860 4.47423 615 ft 13 kts 64°
2026-04-26 16:07 50.46931 4.47420 622 ft 10 kts 335°
2026-04-26 16:07 50.46959 4.47399 622 ft 0 kts 335°